Regional Weather Roundup
Issued by NWS

Home | Current Version | Previous Version | Text Only | Print | Product List | Glossary On
Versions: 1 2 3 4 5 6 7 8 9 10 11 12 13 14 15 16 17 18 19 20 21 22 23 24 25 26 27 28 29 30 31 32 33 34 35 36 37 38 39 40 41 42 43 44 45 46 47 48 49 50
000
ASUS43 KBIS 221820
RWRND

NORTH DAKOTA REGIONAL WEATHER ROUNDUP
NATIONAL WEATHER SERVICE BISMARCK ND
100 PM CDT TUE JUL 22 2014

NOTE: "FAIR" INDICATES FEW OR NO CLOUDS BELOW 12,000 FEET WITH NO
SIGNIFICANT WEATHER AND/OR OBSTRUCTIONS TO VISIBILITY.


NDZ001>003-009>011-017-221900-
NORTHWEST NORTH DAKOTA

CITY           SKY/WX    TMP DP  RH WIND       PRES   REMARKS
WILLISTON      PTSUNNY   81  59  47 VRB5      30.18S
6HR MIN TEMP:  56; 6HR MAX TEMP:  82;

MINOT          SUNNY     75  60  59 VRB7      30.19S
MINOT AFB      MOSUNNY   74  64  69 NE7       30.18S
$$

NDZ018>021-031>035-040>046-221900-
SOUTHWEST NORTH DAKOTA

CITY           SKY/WX    TMP DP  RH WIND       PRES   REMARKS
BISMARCK       SUNNY     76  62  62 VRB5      30.20S
6HR MIN TEMP:  65; 6HR MAX TEMP:  76;

DICKINSON      MOSUNNY   76  65  68 E7        30.21S
GARRISON         N/A     75  64  68 VRB6      30.20S
6HR MIN TEMP:  56; 6HR MAX TEMP:  76;

HETTINGER ARPT SUNNY     78  60  53 CALM      30.23S
$$

NDZ004>008-012>016-024-026-027-054-221900-
NORTHEAST NORTH DAKOTA

CITY           SKY/WX    TMP DP  RH WIND       PRES   REMARKS
GRAND FORKS    SUNNY     74  57  55 N10       30.14R
GRND FRKS AFB  SUNNY     74  57  55 NW12      30.16R
DEVILS LAKE    SUNNY     73  55  53 N7        30.17S
$$

NDZ022-023-025-028>030-036>039-047>053-221900-
SOUTHEAST NORTH DAKOTA

CITY           SKY/WX    TMP DP  RH WIND       PRES   REMARKS
FARGO          SUNNY     77  59  53 N17       30.13R
6HR MIN TEMP:  64; 6HR MAX TEMP:  77;

JAMESTOWN      MOSUNNY   76  60  57 N9        30.17S
$$



USA.gov is the U.S. government's official web portal to all federal, state and local government web resources and services.